Location: Caserta
(41.0670°N, 14.3330°E)
Time: 01:30:44
(UTC+01:00)

STARLINK-1329 - Pass Details

Date: 08 October 2020
Orbit: 548 x 551 km, 53.0° (Epoch: 27 October)

Event Time Altitude Azimuth Distance (km) Brightness Sun altitude
Exits shadow 06:28:20 - 314° (NW) 2,450 6.5 -8.1°
Reaches altitude 10° 06:30:13 10° 327° (NNW) 1,828 6.0 -7.7°
Maximum altitude 06:33:27 22° 18° (NNE) 1,246 5.6 -7.1°
Drops below altitude 10° 06:36:42 10° 70° (ENE) 1,826 7.6 -6.5°
Sets 06:39:21 0° 86° (E) 2,719 9.7 -6.0°
